Weather in Lokachi

Ukraine / Volyn Oblast     50°44′20″N   24°38′53″E
temp.,
°C
wind,
m/s
gust,
m/s
humid.,
%
clouds,
%
prec.,
mm/h
press.,
hPa
HPBL,
m
24 october, sun
sun2400:00+4w613835 0.0 1025462
03:00+3wnw5119070 0.0 1027384
06:00+4wnw598726 0.0 1028385
09:00+3w4982100 0.0 1030301
12:00+7nw575616 0.0 10311220
15:00+8nw4648100 0.1 10311455
18:00+5nw3357100 0.0 103243
21:00+3wnw2265100 0.0 103310
25 october, mon
mon2500:00+3sw116813 0.0 103310
03:00+2s22725 0.0 103314
06:00+1s337633 0.0 103333
09:00+1sse367328 0.0 1032117
12:00+8sse57485 0.0 1032572
15:00+11sse57375 0.0 1029821
18:00+7sse48485 0.0 1028141
21:00+5sse412561 0.0 1027207
26 october, tue
tue2600:00+4sse512571 0.0 1027224
03:00+3sse410623 0.0 1026176
06:00+2s36655 0.0 102599
09:00+3s34630 0.0 102574
12:00+10ssw23400 0.0 1024350
15:00+12s22330 0.0 1022665
18:00+8s22450 0.0 102211
21:00+6ssw22514 0.0 102211
27 october, wed
wed2700:00+5sw335763 0.0 102226
03:00+4w3369100 0.0 102243
06:00+4w3474100 0.0 102345
09:00+4w347638 0.0 102478
12:00+10wnw466030 0.0 1024451
15:00+13nw455929 0.0 10241098
18:00+10wnw467078 0.0 1025112
21:00+7wnw3377100 0.0 102732
28 october, thu
thu2800:00+6wsw3377100 0.0 102725
03:00+6wsw3580100 0.0 102866
06:00+5wsw359046 0.0 102876
09:00+5sw369122 0.0 1028118
12:00+11wsw466298 0.0 1028452
15:00+14wsw4549100 0.0 1027742
18:00+10wsw3361100 0.0 102726
21:00+9sw336672 0.0 102736